[[[{"header":{"parameterUnit":"kt","parameterCategory":2,"dx":1,"dy":1,"la1":30.253999710083008,"la2":30.299108505249023,"lo1":-89.0895004272461,"lo2":-89.04439544677734,"nx":28,"ny":28,"refTime":"2022-10-05T21:00:00:Z","depth":0,"parameterNumber":1,"parameterNumberName":"U-component_of_WINDS"},"data":[1.2148,1.2271,1.2303,1.246,1.2516,1.2629,1.268,1.275,1.2815,1.2955,1.3043,1.3091,1.3171,1.3285,1.3383,1.3403,1.3442,1.346,1.348,1.3367,1.3353,1.3341,1.3312,1.3468,1.3468,1.3593,1.3594,1.3595,1.2057,1.2112,1.2205,1.2317,1.2397,1.2398,1.2488,1.2556,1.2658,1.274,1.2828,1.2956,1.3062,1.3139,1.3248,1.3309,1.3317,1.3336,1.3332,1.3344,1.3224,1.3194,1.3327,1.3327,1.3327,1.3327,1.3327,1.3327,1.19,1.1973,1.2059,1.2161,1.2227,1.2302,1.2379,1.2435,1.2528,1.2644,1.2668,1.2786,1.2877,1.3027,1.3087,1.3181,1.3168,1.32,1.3208,1.3215,1.3217,1.3029,1.3202,1.3202,1.3202,1.3201,1.3201,0,1.1795,1.1817,1.1909,1.201,1.2086,1.2169,1.2251,1.23,1.2363,1.2438,1.255,1.262,1.2761,1.2872,1.2983,1.3041,1.3054,1.306,1.3082,1.3071,1.3045,1.3059,1.286,1.3055,1.3054,1.3053,1.3053,1.3052,1.1638,1.172,1.1828,1.1888,1.1942,1.2039,1.2104,1.2154,1.2221,1.2332,1.2396,1.2507,1.2599,1.2776,1.2846,1.2953,1.2961,1.3031,1.2977,1.2962,1.2961,1.2955,1.2964,1.304,1.3042,1.3043,1.3044,0,1.1546,1.1601,1.174,1.1841,1.1868,1.1953,1.204,1.2117,1.2166,1.2279,1.2309,1.2386,1.2497,1.2556,1.2697,1.2725,1.2867,1.2872,1.2835,1.2839,1.2907,1.2899,1.312,1.3151,1.2991,1.2993,1.2994,0,1.1434,1.1542,1.1617,1.1695,1.1816,1.1863,1.1982,1.2035,1.2114,1.2204,1.2227,1.2311,1.2374,1.2468,1.251,1.2637,1.2664,1.2693,1.2703,1.2691,1.2688,1.273,1.2722,1.2724,1.2723,1.2721,1.2721,0,1.1285,1.1452,1.1579,1.1627,1.1746,1.1806,1.1859,1.1948,1.2013,1.2108,1.2151,1.2258,1.2318,1.2401,1.2453,1.2414,1.2611,1.2569,1.2641,1.264,1.2682,1.2679,1.2859,1.2719,1.2719,1.2718,1.2718,0,1.1204,1.1295,1.1471,1.1571,1.1613,1.1699,1.1805,1.1892,1.1985,1.2016,1.2092,1.2115,1.2232,1.2185,1.2347,1.2281,1.2339,1.2378,1.2384,1.2399,1.2345,1.2438,1.2603,1.2622,1.2411,1.2408,1.2406,0,1.1017,1.121,1.1251,1.1419,1.1517,1.1534,1.163,1.1712,1.1761,1.1853,1.1908,1.2014,1.1992,1.2034,1.2106,1.2169,1.2255,1.2159,1.2294,1.2298,1.2267,1.2419,1.2428,1.256,1.2374,1.2377,1.238,0,1.088,1.1023,1.1051,1.1107,1.1221,1.1304,1.1415,1.1528,1.1586,1.1678,1.1772,1.1923,1.1913,1.1982,1.2014,1.2086,1.2198,1.2066,1.207,1.2087,1.2364,1.2371,1.2393,1.2204,1.2208,1.2211,1.2355,0,1.0743,1.0847,1.0923,1.1047,1.112,1.123,1.1291,1.136,1.1381,1.1431,1.1573,1.166,1.178,1.1821,1.1845,1.1991,1.1976,1.1965,1.1926,1.2025,1.2074,1.2094,1.1847,1.1846,1.1845,1.1845,0,0,1.0551,1.0702,1.0745,1.0853,1.0917,1.0935,1.1047,1.1113,1.1246,1.1291,1.1269,1.1495,1.1568,1.1734,1.1769,1.1819,1.1851,1.1815,1.1977,1.1992,1.2005,1.2056,1.2076,1.1844,1.1843,1.1843,1.1843,0,1.0513,1.0581,1.0689,1.0758,1.0862,1.091,1.0935,1.1043,1.1081,1.122,1.1236,1.1329,1.1511,1.1585,1.1646,1.1796,1.1804,1.1828,1.1886,1.1968,1.1984,1.1997,1.205,1.2069,1.1841,1.1841,1.1841,0,1.0389,1.0466,1.0525,1.0671,1.0741,1.0842,1.0814,1.0923,1.1,1.1019,1.1157,1.1215,1.1321,1.147,1.154,1.1522,1.1758,1.1696,1.1702,1.1712,1.1795,1.1813,1.183,1.1615,1.1613,1.1612,0,0,1.0348,1.0446,1.0546,1.0668,1.071,1.0783,1.0844,1.0872,1.0964,1.1001,1.1076,1.1167,1.1273,1.1342,1.1445,1.16,1.1627,1.1665,1.1676,1.1685,1.1699,1.1784,1.1802,1.1608,1.1608,1.1608,0,0,1.033,1.0449,1.0454,1.0603,1.0688,1.0798,1.0871,1.0881,1.0979,1.0974,1.103,1.1057,1.1198,1.1256,1.1193,1.1432,1.1392,1.1408,1.139,1.1404,1.1415,1.1399,1.118,0,0,0,0,0,1.0324,1.0434,1.0437,1.0471,1.0659,1.0795,1.082,1.0867,1.0835,1.0892,1.0956,1.0962,1.1233,1.1179,1.1214,1.1284,1.1556,1.1565,1.1574,1.1587,1.1602,1.1614,0,0,0,0,0,0,1.0337,1.0379,1.0434,1.0546,1.0589,1.0792,1.0749,1.0765,1.0831,1.0829,1.0949,1.0966,1.101,1.1165,1.1196,1.1261,1.117,1.156,1.1568,1.1575,1.1592,1.1604,1.1614,0,0,0,0,0,1.0349,1.0382,1.0672,1.0546,1.0583,1.0671,1.0745,1.0758,1.081,1.091,1.0926,1.0839,1.1011,1.104,1.1184,1.1246,1.1149,1.116,1.1565,1.1571,1.1577,1.1598,0,0,0,0,0,0,1.0357,1.0396,1.068,1.0693,1.0507,1.066,1.0686,1.0752,1.0888,1.0905,1.0803,1.08,1.1013,1.1035,1.1058,1.1237,1.1132,1.1143,1.1151,1.157,1.1574,1.1579,0,0,0,0,0,0,1.0379,1.0407,1.0687,1.0636,1.0644,1.0651,1.0673,1.0803,1.089,1.0774,1.0775,1.08,1.098,1.1032,1.105,1.1251,1.1119,1.113,1.1137,1.1142,1.1573,1.1577,0,0,0,0,0,0,1.0392,1.0416,1.0633,1.0639,1.0645,1.0797,1.0767,1.0959,1.0841,1.0767,1.0833,1.0829,1.0977,1.0996,1.1044,1.1237,1.1247,1.1119,1.1127,1.1132,1.1135,0,0,0,0,0,0,0,1.0402,1.0225,1.0601,1.0641,1.0647,1.0815,1.0819,1.0823,1.0841,1.0837,1.0834,1.083,1.1056,1.1068,1.108,1.1227,0,0,1.1118,1.1123,0,0,0,0,0,0,0,0,1.0216,1.0223,1.0602,1.0605,1.0607,1.0816,1.0819,1.0822,1.084,1.0837,1.0834,1.0832,1.1059,1.1069,1.1079,0,0,0,0,0,0,0,0,0,0,0,0,0,0,0,1.0602,1.0604,0,1.0816,1.0819,1.0821,1.084,1.0837,1.0835,1.0833,1.1062,1.107,1.1078,0,0,0,0,0,0,0,0,0,0,0,0,0,0,0,0,0,0,0,0,0,0,0,0,0,0,0,0,0,0,0,0,0,0,0,0,0,0,0,0,0,0,0,0,0,0,0,0,0,0,0,0,0,0,0,0,0,0,0,0,0,0,0,0,0,0,0,0,0]}],[{"header":{"parameterUnit":"kt","parameterCategory":2,"dx":1,"dy":1,"la1":30.253999710083008,"la2":30.299108505249023,"lo1":-89.0895004272461,"lo2":-89.04439544677734,"nx":28,"ny":28,"refTime":"2022-10-05T21:00:00:Z","depth":0,"parameterNumber":2,"parameterNumberName":"V-component_of_WINDS"},"data":[4.1685,4.1769,4.1749,4.1834,4.1832,4.1886,4.1899,4.1914,4.1922,4.1985,4.2017,4.2009,4.2009,4.2043,4.2077,4.2072,4.2085,4.2125,4.2111,4.1949,4.1925,4.1902,4.1877,4.2131,4.2131,4.2279,4.228,4.2281,4.1556,4.1553,4.1596,4.1623,4.1657,4.1605,4.1624,4.1655,4.1706,4.1719,4.1752,4.1806,4.1848,4.1836,4.1872,4.1908,4.1885,4.1918,4.1911,4.1911,4.1738,4.1713,4.1936,4.1936,4.1936,4.1936,4.1935,4.1935,4.1313,4.1366,4.1371,4.1417,4.1427,4.1446,4.1492,4.148,4.1522,4.1559,4.1532,4.159,4.1599,4.1638,4.1647,4.169,4.1649,4.1681,4.1687,4.1693,4.1699,4.1472,4.1697,4.1697,4.1696,4.1695,4.1695,0,4.1128,4.1108,4.115,4.1184,4.1217,4.1244,4.1265,4.1294,4.125,4.1288,4.1339,4.1365,4.1419,4.1464,4.1497,4.15,4.1448,4.1445,4.1465,4.1472,4.1473,4.1465,4.1175,4.1438,4.1435,4.1434,4.1433,4.1432,4.0874,4.0942,4.0943,4.0974,4.0981,4.1035,4.1062,4.1019,4.105,4.1071,4.112,4.1167,4.1202,4.129,4.1276,4.1316,4.1291,4.1391,4.1296,4.1301,4.1281,4.1274,4.1277,4.1408,4.1411,4.1413,4.1415,0,4.073,4.0703,4.0804,4.0799,4.08,4.0873,4.0868,4.0922,4.0906,4.0977,4.0991,4.0966,4.1019,4.099,4.1047,4.1029,4.114,4.1119,4.1133,4.1124,4.1204,4.1194,4.1488,4.152,4.1267,4.1269,4.1271,0,4.0499,4.0593,4.0544,4.0605,4.0705,4.066,4.076,4.0756,4.0766,4.0821,4.0761,4.0815,4.077,4.0819,4.0794,4.0881,4.0895,4.0884,4.0874,4.0885,4.0885,4.0896,4.088,4.0863,4.0862,4.0861,4.086,0,4.0271,4.0361,4.0459,4.0475,4.0482,4.0529,4.0535,4.0547,4.0577,4.0611,4.0627,4.0673,4.0695,4.0729,4.0695,4.0631,4.0805,4.071,4.0792,4.0793,4.0828,4.0825,4.1098,4.0858,4.0857,4.0857,4.0856,0,4.0079,4.0115,4.0267,4.0268,4.0294,4.0362,4.0399,4.0452,4.047,4.0458,4.0486,4.0441,4.0522,4.0428,4.0536,4.046,4.0485,4.0484,4.049,4.0489,4.0382,4.053,4.08,4.0822,4.0494,4.0491,4.0489,0,3.982,3.9969,3.9931,4.0078,4.0141,4.0064,4.0139,4.0159,4.015,4.0201,4.0191,4.0252,4.0177,4.0191,4.025,4.0241,4.034,4.0228,4.0294,4.0297,4.0282,4.0532,4.0575,4.0745,4.045,4.0454,4.0457,0,3.9616,3.9627,3.9657,3.967,3.9692,3.9748,3.9836,3.9886,3.9921,3.9956,4.0023,4.0114,4.0057,4.0085,4.0055,4.0117,4.0272,4.0049,4.0049,4.0082,4.0432,4.0471,4.05,4.0237,4.0242,4.0246,4.0427,0,3.9313,3.9388,3.947,3.951,3.955,3.9645,3.9615,3.966,3.9625,3.9614,3.9719,3.9734,3.9788,3.9818,3.9788,3.9942,3.991,3.9852,3.9754,3.9922,3.9979,4.0004,3.9669,3.9666,3.9663,3.9661,0,0,3.9067,3.9174,3.9134,3.9219,3.9249,3.9171,3.9273,3.9295,3.9341,3.9362,3.9308,3.9437,3.9453,3.9583,3.9633,3.966,3.9682,3.9627,3.9844,3.9865,3.9884,3.9946,3.9973,3.9657,3.9656,3.9655,3.9654,0,3.8948,3.8969,3.9073,3.9092,3.912,3.9105,3.913,3.9145,3.9143,3.9251,3.9183,3.9244,3.9355,3.9374,3.9399,3.9611,3.9556,3.9632,3.9751,3.982,3.9844,3.9865,3.9932,3.9957,3.9648,3.9648,3.9649,0,3.8735,3.8746,3.8795,3.8867,3.8886,3.8958,3.8847,3.8932,3.8983,3.8896,3.9004,3.9009,3.9037,3.917,3.9229,3.9181,3.9441,3.9359,3.9374,3.9378,3.9444,3.9473,3.9498,3.9158,3.9156,3.9155,0,0,3.8636,3.8709,3.8709,3.884,3.8856,3.8836,3.8874,3.8843,3.8871,3.8883,3.8888,3.8917,3.8978,3.902,3.9078,3.923,3.9228,3.93,3.9323,3.9342,3.9356,3.9427,3.9456,3.9149,3.9148,3.9148,0,0,3.859,3.8594,3.8555,3.8703,3.8731,3.874,3.882,3.8772,3.8821,3.8807,3.8761,3.8767,3.8892,3.8901,3.8822,3.9041,3.8946,3.8964,3.903,3.9059,3.9082,3.9074,3.871,0,0,0,0,0,3.8454,3.8592,3.8557,3.8578,3.8671,3.876,3.8771,3.8736,3.8666,3.8729,3.8725,3.8666,3.8846,3.8776,3.8797,3.8884,3.907,3.9084,3.9097,3.9217,3.9248,3.9274,0,0,0,0,0,0,3.8462,3.8487,3.8553,3.8569,3.8589,3.8755,3.8628,3.8622,3.8659,3.8645,3.8669,3.8667,3.8639,3.8762,3.8782,3.8865,3.8703,3.9075,3.9087,3.9098,3.9228,3.9253,3.9274,0,0,0,0,0,3.8468,3.8488,3.8648,3.8566,3.8584,3.857,3.8623,3.8617,3.8644,3.864,3.8636,3.8614,3.8643,3.8657,3.8774,3.8857,3.8689,3.8697,3.9083,3.9092,3.9101,3.924,0,0,0,0,0,0,3.8472,3.8483,3.865,3.8654,3.8512,3.856,3.8566,3.8612,3.8636,3.8634,3.8583,3.8572,3.8647,3.8657,3.8668,3.8856,3.8678,3.8686,3.869,3.909,3.9097,3.9104,0,0,0,0,0,0,3.8472,3.8487,3.8652,3.8586,3.8582,3.8551,3.8557,3.8654,3.8637,3.8577,3.8568,3.8578,3.863,3.8658,3.8666,3.8819,3.867,3.8677,3.8682,3.8685,3.9096,3.9102,0,0,0,0,0,0,3.8478,3.8491,3.8584,3.8582,3.8578,3.862,3.8635,3.8733,3.858,3.8577,3.8565,3.8558,3.8633,3.864,3.8665,3.8815,3.8818,3.867,3.8675,3.8678,3.868,0,0,0,0,0,0,0,3.8482,3.8403,3.8626,3.8578,3.8574,3.8691,3.8693,3.8694,3.8579,3.8573,3.8567,3.8561,3.8628,3.8636,3.8644,3.8812,0,0,3.8669,3.8673,0,0,0,0,0,0,0,0,3.8396,3.8401,3.8627,3.8627,3.8628,3.8692,3.8692,3.8693,3.8578,3.8573,3.8568,3.8564,3.863,3.8637,3.8643,0,0,0,0,0,0,0,0,0,0,0,0,0,0,0,3.8627,3.8627,0,3.8692,3.8692,3.8693,3.8577,3.8573,3.8569,3.8565,3.8632,3.8637,3.8643,0,0,0,0,0,0,0,0,0,0,0,0,0,0,0,0,0,0,0,0,0,0,0,0,0,0,0,0,0,0,0,0,0,0,0,0,0,0,0,0,0,0,0,0,0,0,0,0,0,0,0,0,0,0,0,0,0,0,0,0,0,0,0,0,0,0,0,0,0]}]]]